time_stamp(utc),avg(mph),gust(mph),direction(deg),12m_air_temp(f),sonic_u(cm/s),sonic_v(cm/s),sonic_w(cm/s),pressure,2m_air_temp(f),pyranometer(W/m^2)
"2017-02-08 00:00:21+00",16.7,19.7,,48.7,-245,-675,-8,1005.35,48,0
"2017-02-08 00:05:21+00",18.9,22.9,,49.3,-325,-747,-6,1005.33,48.4,0
"2017-02-08 00:10:21+00",18.0,21.0,,50.3,-326,-718,-6,1005.24,49.2,0
"2017-02-08 00:15:21+00",19.7,22.7,,50.9,-408,-763,-11,1005.21,49.8,0
"2017-02-08 00:20:21+00",18.3,20.3,,51.1,-369,-712,-1,1005.13,50.1,0
"2017-02-08 00:25:21+00",21.3,23.3,,51.4,-403,-830,-2,1004.83,50.3,0
"2017-02-08 00:30:21+00",21.0,25.0,,51.3,-380,-842,7,1004.86,50.4,0
"2017-02-08 00:35:21+00",24.7,27.7,,51.5,-431,-978,-6,1004.64,50.5,0
"2017-02-08 00:40:21+00",23.0,26.0,,51.5,-444,-891,-5,1004.56,50.6,0
"2017-02-08 00:45:21+00",22.6,26.6,,51.5,-526,-860,6,1004.53,50.5,0
"2017-02-08 00:50:21+00",25.5,29.5,,53.3,-638,-946,9,1004.47,51.7,0
"2017-02-08 00:55:21+00",25.1,30.1,,53.9,-712,-910,12,1004.39,52.6,0
"2017-02-08 01:00:21+00",27.3,34.3,,54,-765,-987,12,1004.31,52.8,0
"2017-02-08 01:05:21+00",24.5,29.5,,53.9,-711,-878,34,1004.32,52.7,0
"2017-02-08 01:10:21+00",25.3,31.3,,53.8,-763,-874,38,1004.23,52.7,0
"2017-02-08 01:15:21+00",27.1,34.1,,54,-798,-940,1,1004.17,52.7,0
"2017-02-08 01:20:21+00",26.2,33.2,,54,-761,-929,38,1004.09,52.7,0
"2017-02-08 01:25:21+00",25.3,31.3,,53.6,-657,-936,6,1004.04,52.6,0
"2017-02-08 01:30:21+00",25.4,28.4,,53.6,-602,-964,2,1003.96,52.6,0
"2017-02-08 01:35:21+00",23.4,28.4,,52.4,-524,-895,3,1004,51.7,0
"2017-02-08 01:40:21+00",23.4,26.4,,51.8,-497,-898,-7,1004.04,51,0
"2017-02-08 01:45:21+00",23.3,26.3,,51.5,-567,-873,-13,1004.04,50.6,0
"2017-02-08 01:50:21+00",21.0,26.0,,51.4,-527,-788,17,1004.08,50.6,0
"2017-02-08 01:55:21+00",22.0,25.0,,51.5,-550,-824,20,1004.15,50.5,0
"2017-02-08 02:00:21+00",20.1,24.1,,51.8,-492,-755,4,1004.06,50.8,0
"2017-02-08 02:05:21+00",20.6,25.6,,52.1,-495,-778,1,1004.07,51,0
"2017-02-08 02:10:21+00",20.1,23.1,,51.8,-481,-765,11,1004.05,50.8,0
"2017-02-08 02:15:21+00",24.0,28.0,,52.6,-616,-887,3,1004.06,51.4,0
"2017-02-08 02:20:21+00",20.0,24.0,,52.4,-495,-756,16,1004.07,51.4,0
"2017-02-08 02:25:21+00",23.6,28.6,,52.7,-604,-876,15,1004.03,51.4,0
"2017-02-08 02:30:21+00",20.5,24.5,,51.9,-512,-767,6,1004.09,51.1,0
"2017-02-08 02:35:21+00",20.4,25.4,,51.7,-460,-775,-3,1003.97,50.7,0
"2017-02-08 02:40:21+00",19.6,24.6,,51.4,-467,-744,14,1004.01,50.6,0
"2017-02-08 02:45:21+00",22.8,25.8,,51.3,-531,-860,-23,1003.95,50.4,0
"2017-02-08 02:50:21+00",23.3,26.3,,51.1,-557,-874,-6,1004.01,50.3,0
"2017-02-08 02:55:21+00",21.1,24.1,,51.3,-480,-799,1,1003.91,50.3,0
"2017-02-08 03:00:21+00",22.2,24.2,,51.8,-534,-838,11,1003.93,50.6,0
"2017-02-08 03:05:21+00",22.2,26.2,,52.9,-597,-818,12,1003.94,51.5,0
"2017-02-08 03:10:21+00",25.3,30.3,,53.4,-730,-891,27,1003.99,52.1,0
"2017-02-08 03:15:21+00",28.4,32.4,,53.8,-729,-1047,-11,1003.73,52.6,0
"2017-02-08 03:20:21+00",25.7,31.7,,53.5,-681,-951,24,1003.81,52.5,0
"2017-02-08 03:25:21+00",25.0,29.0,,53.2,-644,-930,16,1003.73,52.3,0
"2017-02-08 03:30:21+00",25.5,29.5,,53.2,-704,-919,18,1003.62,52.2,0
"2017-02-08 03:35:21+00",25.7,30.7,,53.3,-793,-845,4,1003.64,52.2,0
"2017-02-08 03:40:21+00",25.2,30.2,,53.4,-744,-880,16,1003.47,52.3,0
"2017-02-08 03:45:21+00",28.4,33.4,,53.7,-809,-1008,19,1003.28,52.6,0
"2017-02-08 03:50:21+00",24.3,29.3,,53.4,-617,-891,-8,1003.14,52.4,0
"2017-02-08 03:55:21+00",22.4,26.4,,52.3,-481,-864,2,1003.1,51.8,0
"2017-02-08 04:00:21+00",24.0,29.0,,51.8,-513,-922,-6,1003.03,51.1,0
"2017-02-08 04:05:21+00",24.2,28.2,,51.6,-530,-934,7,1002.98,50.9,0
"2017-02-08 04:10:21+00",24.5,28.5,,51.5,-532,-938,-1,1002.94,50.8,0
"2017-02-08 04:15:21+00",24.9,28.9,,51.4,-600,-938,-17,1002.91,50.6,0
"2017-02-08 04:20:21+00",23.6,29.6,,51.2,-537,-897,5,1002.82,50.5,0
"2017-02-08 04:25:21+00",21.6,25.6,,51.1,-497,-826,5,1002.67,50.3,0
"2017-02-08 04:30:21+00",22.5,25.5,,51,-544,-844,0,1002.69,50.2,0
"2017-02-08 04:35:21+00",21.8,26.8,,50.9,-544,-810,4,1002.63,50.1,0
"2017-02-08 04:40:21+00",21.4,26.4,,50.8,-520,-801,-5,1002.38,50.1,0
"2017-02-08 04:45:21+00",22.1,26.1,,50.8,-468,-854,-11,1002.3,50,0
"2017-02-08 04:50:21+00",23.8,26.8,,50.9,-556,-894,-14,1002.14,50,0
"2017-02-08 04:55:21+00",21.6,24.6,,50.6,-432,-840,3,1002.11,49.9,0
"2017-02-08 05:00:21+00",23.3,29.3,,50.8,-542,-888,1,1002.08,49.9,0
"2017-02-08 05:05:21+00",23.8,28.8,,50.8,-552,-901,-8,1002.03,50,0
"2017-02-08 05:10:21+00",23.2,26.2,,50.6,-545,-880,8,1002.09,49.8,0
"2017-02-08 05:15:21+00",20.5,24.5,,50.5,-546,-747,-3,1002.15,49.7,0
"2017-02-08 05:20:21+00",18.4,22.4,,50.4,-439,-694,2,1002.18,49.6,0
"2017-02-08 05:25:21+00",19.9,22.9,,51.3,-545,-732,3,1002.18,50,0
"2017-02-08 05:30:21+00",18.5,21.5,,51.1,-491,-684,2,1002.17,50.1,0
"2017-02-08 05:35:21+00",20.3,24.3,,50.8,-491,-758,-7,1002.17,50,0
"2017-02-08 05:40:21+00",20.3,24.3,,50.5,-476,-770,7,1002.02,49.6,0
"2017-02-08 05:45:21+00",20.9,23.9,,50.6,-548,-770,-9,1002.13,49.6,0
"2017-02-08 05:50:21+00",16.6,18.6,,50.4,-437,-621,18,1002.11,49.5,0
"2017-02-08 05:55:21+00",15.9,17.9,,50.1,-435,-577,4,1002.14,49.3,0
"2017-02-08 06:00:21+00",19.6,21.6,,50.2,-556,-700,3,1002.12,49.3,0
"2017-02-08 06:05:21+00",17.7,19.7,,50,-495,-642,6,1002.02,49.2,0
"2017-02-08 06:10:21+00",20.0,23.0,,50.2,-546,-732,0,1002.02,49.3,0
"2017-02-08 06:15:21+00",18.8,20.8,,50.3,-506,-696,9,1001.88,49.4,0
"2017-02-08 06:20:21+00",19.4,23.4,,50.2,-555,-688,10,1001.9,49.4,0
"2017-02-08 06:25:21+00",21.0,25.0,,50.2,-540,-782,10,1001.88,49.4,0
"2017-02-08 06:30:21+00",18.0,22.0,,50.1,-487,-667,27,1001.81,49.4,0
"2017-02-08 06:35:21+00",15.8,18.8,,49.7,-383,-594,6,1001.82,49,0
"2017-02-08 06:40:21+00",15.8,18.8,,49.6,-350,-602,5,1001.74,48.9,0
"2017-02-08 06:45:21+00",18.5,20.5,,49.5,-352,-723,3,1001.7,48.8,0
"2017-02-08 06:50:21+00",20.7,24.7,,49.4,-351,-829,-12,1001.67,48.7,0
"2017-02-08 06:55:21+00",21.4,26.4,,49.4,-424,-835,0,1001.52,48.7,0
"2017-02-08 07:00:21+00",20.7,22.7,,49.1,-437,-793,-13,1001.46,48.5,0
"2017-02-08 07:05:21+00",18.3,20.3,,49,-371,-709,1,1001.3,48.4,0
"2017-02-08 07:10:21+00",16.7,19.7,,49,-343,-639,-2,1001.26,48.3,0
"2017-02-08 07:15:21+00",14.9,16.9,,49.2,-384,-557,6,1001.26,48.3,0
"2017-02-08 07:20:21+00",16.2,19.2,,49.5,-429,-590,-7,1001.26,48.4,0
"2017-02-08 07:25:21+00",15.9,17.9,,49.4,-429,-579,6,1001.15,48.6,0
"2017-02-08 07:30:21+00",15.8,17.8,,49.4,-466,-553,10,1001.16,48.6,0
"2017-02-08 07:35:21+00",14.6,17.6,,49.3,-444,-492,17,1001.14,48.5,0
"2017-02-08 07:40:21+00",15.6,18.6,,49.2,-486,-508,14,1001.12,48.4,0
"2017-02-08 07:45:21+00",15.1,17.1,,48.9,-471,-495,6,1001.06,48.2,0
"2017-02-08 07:50:21+00",16.7,18.7,,48.7,-532,-514,0,1001.08,47.9,0
"2017-02-08 07:55:21+00",16.2,19.2,,48.8,-492,-543,2,1001.1,48,0
"2017-02-08 08:00:21+00",15.3,16.3,,48.6,-438,-537,10,1000.99,47.9,0
"2017-02-08 08:05:21+00",16.8,19.8,,48.9,-476,-607,4,1001,48.1,0
"2017-02-08 08:10:21+00",15.2,17.2,,48.8,-453,-514,3,1001.1,48,0
"2017-02-08 08:15:21+00",14.0,17.0,,48.9,-423,-475,0,1001.1,48.1,0
"2017-02-08 08:20:21+00",14.0,16.0,,49,-417,-474,1,1001.04,48.2,0
"2017-02-08 08:25:21+00",14.6,15.6,,49.2,-461,-451,0,1001.07,48.4,0
"2017-02-08 08:30:21+00",15.9,17.9,,49.2,-511,-487,1,1001.1,48.4,0
"2017-02-08 08:35:21+00",15.4,18.4,,49,-497,-477,4,1001.18,48.3,0
"2017-02-08 08:40:21+00",16.4,18.4,,49,-502,-549,2,1001.13,48.3,0
"2017-02-08 08:45:21+00",15.8,19.8,,49,-457,-561,5,1001.16,48.3,0
"2017-02-08 08:50:21+00",17.6,19.6,,49.4,-470,-644,5,1001.23,48.6,0
"2017-02-08 08:55:21+00",18.5,21.5,,49.2,-490,-681,5,1001.21,48.6,0
"2017-02-08 09:00:21+00",17.0,20.0,,48.8,-479,-614,15,1001.32,48.4,0
"2017-02-08 09:05:21+00",16.4,20.4,,48.7,-474,-576,10,1001.26,48.2,0
"2017-02-08 09:10:21+00",16.7,19.7,,48.6,-479,-591,7,1001.17,48.1,0
"2017-02-08 09:15:21+00",20.3,24.3,,48.8,-584,-730,3,1001.16,48.2,0
"2017-02-08 09:20:21+00",19.4,22.4,,48.8,-555,-690,5,1001.1,48.2,0
"2017-02-08 09:25:21+00",17.9,20.9,,48.7,-514,-644,9,1000.95,48.1,0
"2017-02-08 09:30:21+00",17.8,20.8,,48.6,-498,-646,11,1000.95,48.1,0
"2017-02-08 09:35:21+00",17.4,20.4,,48.8,-519,-615,18,1001.03,48.1,0
"2017-02-08 09:40:21+00",17.0,19.0,,48.9,-524,-569,18,1000.93,48.2,0
"2017-02-08 09:45:21+00",18.0,20.0,,48.9,-529,-624,7,1000.73,48.2,0
"2017-02-08 09:50:21+00",17.5,19.5,,48.6,-544,-576,1,1000.72,48,0
"2017-02-08 09:55:21+00",16.2,18.2,,48.5,-496,-543,-2,1000.62,47.9,0
"2017-02-08 10:00:21+00",16.0,19.0,,48.3,-507,-518,19,1000.54,47.7,0
"2017-02-08 10:05:21+00",15.6,17.6,,48.2,-501,-482,14,1000.65,47.7,0
"2017-02-08 10:10:21+00",16.1,18.1,,48.2,-513,-502,7,1000.64,47.5,0
"2017-02-08 10:15:21+00",15.5,17.5,,48.1,-475,-505,7,1000.63,47.5,0
"2017-02-08 10:20:21+00",14.3,15.3,,48,-430,-487,5,1000.59,47.3,0
"2017-02-08 10:25:21+00",14.6,16.6,,47.9,-437,-501,4,1000.73,47.2,0
"2017-02-08 10:30:21+00",13.0,14.0,,47.7,-380,-458,7,1000.67,47.1,0
"2017-02-08 10:35:21+00",12.4,14.4,,47.8,-342,-452,5,1000.65,47.1,0
"2017-02-08 10:40:21+00",14.2,16.2,,47.8,-379,-525,-2,1000.71,47,0
"2017-02-08 10:45:21+00",13.6,15.6,,47.9,-383,-489,3,1000.81,47.1,0
"2017-02-08 10:50:21+00",14.6,17.6,,48.1,-410,-529,1,1000.89,47.2,0
"2017-02-08 10:55:21+00",14.8,16.8,,48.2,-422,-529,4,1000.91,47.2,0
"2017-02-08 11:00:21+00",16.4,18.4,,48.3,-494,-563,0,1000.99,47.3,0
"2017-02-08 11:05:21+00",15.8,17.8,,48.2,-480,-537,-7,1000.89,47.2,0
"2017-02-08 11:10:21+00",14.4,15.4,,48.1,-452,-473,3,1001.03,47.2,0
"2017-02-08 11:15:21+00",13.9,15.9,,48,-442,-434,0,1001.06,47.1,0
"2017-02-08 11:20:21+00",14.2,17.2,,47.9,-457,-443,0,1001.12,47,0
"2017-02-08 11:25:21+00",13.8,15.8,,47.8,-434,-443,6,1001.1,46.9,0
"2017-02-08 11:30:21+00",14.9,16.9,,47.9,-475,-470,0,1001.19,46.9,0
"2017-02-08 11:35:21+00",15.2,17.2,,48.1,-476,-496,2,1001.25,46.9,0
"2017-02-08 11:40:21+00",14.9,17.9,,48.3,-474,-482,0,1001.28,47.1,0
"2017-02-08 11:45:21+00",15.1,16.1,,48.6,-483,-464,-6,1001.27,47.2,0
"2017-02-08 11:50:21+00",14.5,15.5,,48.9,-471,-424,4,1001.35,47.3,0
"2017-02-08 11:55:21+00",13.9,14.9,,48.8,-461,-382,2,1001.42,47.2,0
"2017-02-08 12:00:21+00",13.6,14.6,,49,-445,-389,0,1001.42,47.3,0
"2017-02-08 12:05:21+00",13.2,14.2,,49.2,-425,-401,-4,1001.52,47.3,0
"2017-02-08 12:10:21+00",13.7,15.7,,49.9,-443,-409,-2,1001.49,47.5,0
"2017-02-08 12:15:21+00",12.7,13.7,,50.4,-409,-385,-4,1001.52,47.8,0
"2017-02-08 12:20:21+00",13.1,14.1,,51.1,-445,-353,8,1001.59,48.2,0
"2017-02-08 12:25:21+00",14.5,15.5,,52.1,-493,-382,7,1001.71,48.7,0
"2017-02-08 12:30:21+00",14.3,15.3,,52.7,-489,-379,3,1001.77,49.2,0
"2017-02-08 12:35:21+00",13.1,14.1,,53,-429,-376,6,1001.84,49.6,0
"2017-02-08 12:40:21+00",12.9,13.9,,53.5,-464,-325,10,1001.83,49.9,0
"2017-02-08 12:45:21+00",12.5,13.5,,52.9,-413,-344,5,1001.85,49.9,0
"2017-02-08 12:50:21+00",12.9,14.9,,53.2,-428,-356,2,1001.91,50.1,0
"2017-02-08 12:55:21+00",12.2,13.2,,53.1,-400,-341,4,1002.02,50.3,0
"2017-02-08 13:00:21+00",12.7,14.7,,53.5,-410,-386,4,1002.16,50.5,1.6
"2017-02-08 13:05:21+00",11.7,12.7,,53.3,-358,-391,-1,1002.14,50.9,3.3
"2017-02-08 13:10:21+00",12.2,13.2,,53.6,-387,-397,0,1002.24,51.2,9.3
"2017-02-08 13:15:21+00",12.4,14.4,,53.9,-381,-423,1,1002.16,51.5,14.7
"2017-02-08 13:20:21+00",12.8,13.8,,53.9,-358,-458,1,1002.23,51.7,17.6
"2017-02-08 13:25:21+00",13.4,14.4,,53.9,-372,-477,-4,1002.23,51.8,21
"2017-02-08 13:30:21+00",13.3,14.3,,53.7,-360,-483,-8,1002.23,52,27.3
"2017-02-08 13:35:21+00",12.4,13.4,,53.9,-361,-436,0,1002.13,52.2,28
"2017-02-08 13:40:21+00",12.3,14.3,,54.1,-377,-404,-1,1002.23,52.4,29.9
"2017-02-08 13:45:21+00",11.9,12.9,,54,-386,-345,5,1002.4,52.6,33.4
"2017-02-08 13:50:21+00",11.6,13.6,,53.9,-367,-363,3,1002.51,52.7,39.9
"2017-02-08 13:55:21+00",11.1,12.1,,53.8,-350,-355,5,1002.61,52.8,49.2
"2017-02-08 14:00:21+00",10.4,12.4,,53.7,-324,-331,5,1002.65,53,65.6
"2017-02-08 14:05:21+00",10.8,12.8,,53.7,-333,-357,-4,1002.64,53.2,94.8
"2017-02-08 14:10:21+00",10.6,12.6,,54,-334,-342,-4,1002.68,53.6,98.2
"2017-02-08 14:15:21+00",9.3,11.3,,53.9,-279,-318,1,1002.69,54,96
"2017-02-08 14:20:21+00",8.5,9.5,,54.1,-268,-268,14,1002.8,54.4,113.9
"2017-02-08 14:25:21+00",9.2,10.2,,54.4,-288,-273,0,1002.71,54.8,134.8
"2017-02-08 14:30:21+00",9.2,11.2,,55,-309,-263,2,1002.87,55.4,175.3
"2017-02-08 14:35:21+00",9.9,10.9,,55.9,-363,-239,6,1002.76,56.4,223
"2017-02-08 14:40:21+00",8.8,10.8,,57.1,-341,-211,5,1002.73,57.8,241.6
"2017-02-08 14:45:21+00",7.9,8.9,,58,-295,-189,15,1002.83,59,127.4
"2017-02-08 14:50:21+00",9.0,11.0,,58,-294,-263,13,1002.86,59.3,110.6
"2017-02-08 14:55:21+00",9.0,11.0,,57.9,-290,-267,-5,1002.88,59.4,194.1
"2017-02-08 15:00:21+00",7.8,9.8,,58.1,-294,-186,10,1003.03,59.7,136
"2017-02-08 15:05:21+00",7.9,8.9,,58.5,-309,-176,12,1003.04,60.1,147.5
"2017-02-08 15:10:21+00",7.9,8.9,,58.5,-294,-181,9,1003.14,60.5,166.8
"2017-02-08 15:15:21+00",6.8,7.8,,58.3,-282,-129,10,1003.16,60.8,162.6
"2017-02-08 15:20:21+00",7.1,8.1,,58.7,-291,-142,7,1003.09,61,127.2
"2017-02-08 15:25:21+00",6.1,7.1,,59,-259,-119,5,1003.13,61.3,130.3
"2017-02-08 15:30:21+00",6.3,8.3,,59.7,-246,-121,13,1003.13,61.4,152.4
"2017-02-08 15:35:21+00",6.0,8.0,,59.8,-247,-64,24,1003.28,61.9,189.5
"2017-02-08 15:40:21+00",9.8,10.8,,60.7,-433,22,20,1003.29,61.4,197.4
"2017-02-08 15:45:21+00",11.5,12.5,,60.3,-469,211,25,1003.26,60.8,214.2
"2017-02-08 15:50:21+00",12.3,14.3,,60.6,-515,190,25,1003.37,60.4,182.2
"2017-02-08 15:55:21+00",10.5,12.5,,60.4,-450,116,15,1003.46,59.6,172.1
"2017-02-08 16:00:21+00",10.9,11.9,,60.8,-469,130,16,1003.58,59.5,244.6
"2017-02-08 16:05:21+00",13.5,15.5,,61.6,-590,159,30,1003.65,60.2,292.1
"2017-02-08 16:10:21+00",13.0,14.0,,62.5,-545,208,29,1003.55,60.4,253.4
"2017-02-08 16:15:21+00",13.2,14.2,,62.1,-575,158,33,1003.55,60.6,208.3
"2017-02-08 16:20:21+00",13.2,14.2,,62.4,-555,215,20,1003.57,60.5,118.7
"2017-02-08 16:25:21+00",17.4,19.4,,63.8,-705,324,36,1003.5,61.8,118.7
"2017-02-08 16:30:21+00",16.0,19.0,,63.9,-655,302,39,1003.51,62.8,273.4
"2017-02-08 16:35:21+00",14.4,16.4,,63.4,-574,312,36,1003.47,63.1,205.5
"2017-02-08 16:40:21+00",14.3,16.3,,63.8,-563,298,39,1003.48,63.6,225.4
"2017-02-08 16:45:21+00",17.0,19.0,,63.6,-678,338,43,1003.48,63.3,184.3
"2017-02-08 16:50:21+00",14.9,16.9,,64.3,-589,331,35,1003.5,63.7,153
"2017-02-08 16:55:21+00",16.1,21.1,,63.9,-596,428,38,1003.55,63.9,177.1
"2017-02-08 17:00:21+00",16.4,18.4,,63.3,-603,424,44,1003.48,63,122.4
"2017-02-08 17:05:21+00",14.9,16.9,,63,-585,309,25,1003.32,62.8,239
"2017-02-08 17:10:21+00",14.0,16.0,,64.4,-534,357,33,1003.16,63.7,271.7
"2017-02-08 17:15:21+00",14.0,15.0,,63.7,-499,367,37,1003.09,64.1,258.6
"2017-02-08 17:20:21+00",12.8,14.8,,63.6,-475,322,28,1003.07,63.9,249.8
"2017-02-08 17:25:21+00",14.3,16.3,,64.4,-525,365,35,1003.05,63.9,226.2
"2017-02-08 17:30:21+00",12.4,14.4,,64.5,-486,248,28,1003.03,64.5,255.6
"2017-02-08 17:35:21+00",11.3,13.3,,64.8,-426,271,35,1003.02,65.3,256.5
"2017-02-08 17:40:21+00",9.5,10.5,,63.9,-246,331,21,1002.9,65.1,252.6
"2017-02-08 17:45:21+00",14.1,16.1,,64.8,-262,569,37,1002.87,65.8,153.4
"2017-02-08 17:50:21+00",15.3,18.3,,65.1,-242,627,20,1002.89,66.6,277.6
"2017-02-08 17:55:21+00",12.3,15.3,,64.7,-186,504,38,1002.72,66.6,219.5
"2017-02-08 18:00:21+00",13.2,14.2,,64.6,-81,571,12,1002.67,66.5,192.1
"2017-02-08 18:05:21+00",11.5,13.5,,64.8,-130,497,25,1002.62,66.6,229.4
"2017-02-08 18:10:21+00",9.0,10.0,,65.3,-45,385,31,1002.6,67.1,275.6
"2017-02-08 18:15:21+00",10.2,11.2,,65.3,-154,419,13,1002.48,67.7,242.1
"2017-02-08 18:20:21+00",11.7,13.7,,65.6,-94,504,43,1002.56,67.9,195.3
"2017-02-08 18:25:21+00",9.7,10.7,,65.5,-206,380,27,1002.54,67.8,193.2
"2017-02-08 18:30:21+00",4.8,5.8,,65.4,-117,163,15,1002.41,67.9,194.8
"2017-02-08 18:35:21+00",7.8,8.8,,60.7,260,-207,6,1002.47,63.8,189.7
"2017-02-08 18:40:21+00",9.5,10.5,,57.8,263,-312,-1,1002.6,60.9,219
"2017-02-08 18:45:21+00",8.9,9.9,,56.4,234,-299,-15,1002.64,58.9,193.7
"2017-02-08 18:50:21+00",7.7,8.7,,55.4,201,-264,2,1002.64,57.6,178.3
"2017-02-08 18:55:21+00",7.0,7.0,,55.5,184,-234,1,1002.72,57.3,170.9
"2017-02-08 19:00:21+00",6.2,7.2,,55.4,143,-226,9,1002.62,57.3,210.2
"2017-02-08 19:05:21+00",6.2,7.2,,55.2,161,-204,1,1002.62,57,204.8
"2017-02-08 19:10:21+00",5.6,6.6,,56,155,-177,11,1002.7,57.8,178.2
"2017-02-08 19:15:21+00",6.8,7.8,,56.8,163,-237,-6,1002.67,58.3,175.6
"2017-02-08 19:20:21+00",5.3,6.3,,57.1,118,-190,3,1002.65,58.6,182.4
"2017-02-08 19:25:21+00",6.0,7.0,,56.2,147,-208,-1,1002.61,57.9,173.1
"2017-02-08 19:30:21+00",6.7,7.7,,55.9,170,-229,-5,1002.42,57.6,191.8
"2017-02-08 19:35:21+00",7.2,8.2,,56.9,249,-174,7,1002.4,58.4,192.7
"2017-02-08 19:40:21+00",9.1,10.1,,57.8,329,-222,-9,1002.24,59.4,206.9
"2017-02-08 19:45:21+00",9.5,11.5,,57.9,347,-244,6,1002.17,59.8,186.2
"2017-02-08 19:50:21+00",7.3,8.3,,57.4,282,-158,13,1002.3,59.6,174.1
"2017-02-08 19:55:21+00",7.0,9.0,,56.9,265,-139,-4,1002.28,59.3,139.3
"2017-02-08 20:00:21+00",6.6,7.6,,56.6,214,-192,18,1002.2,59.2,139.1
"2017-02-08 20:05:21+00",7.3,9.3,,56.2,208,-223,4,1002.23,58.2,121.8
"2017-02-08 20:10:21+00",7.4,8.4,,56.2,285,-159,0,1002.31,58.1,107.3
"2017-02-08 20:15:21+00",6.9,7.9,,56.4,246,-164,8,1002.29,58.1,117.6
"2017-02-08 20:20:21+00",7.9,8.9,,56.4,278,-196,-2,1002.2,58.1,104.6
"2017-02-08 20:25:21+00",7.0,8.0,,56.3,246,-177,12,1002.27,57.9,91.9
"2017-02-08 20:30:21+00",7.7,8.7,,56.1,240,-232,2,1002.23,57.6,60.7
"2017-02-08 20:35:21+00",6.5,7.5,,55.5,227,-163,-5,1002.48,57.1,28.2
"2017-02-08 20:40:21+00",6.0,7.0,,54.3,144,-214,-8,1002.47,55.7,56.6
"2017-02-08 20:45:21+00",5.4,6.4,,53.1,140,-178,-2,1002.59,54.3,36.3
"2017-02-08 20:50:21+00",5.2,5.2,,52.4,132,-175,11,1002.63,53.6,62.4
"2017-02-08 20:55:21+00",4.5,6.5,,52,22,-186,6,1002.73,53.1,84.1
"2017-02-08 21:00:21+00",5.7,5.7,,51.6,90,-223,-2,1002.74,52.5,40.7
"2017-02-08 21:05:21+00",5.0,6.0,,50.9,89,-184,0,1002.83,51.8,15.6
"2017-02-08 21:10:21+00",5.4,6.4,,50.5,72,-216,-6,1002.91,51.1,8
"2017-02-08 21:15:21+00",5.1,6.1,,50.2,54,-199,-8,1003.03,50.6,11.6
"2017-02-08 21:20:21+00",5.1,6.1,,49.8,105,-185,-6,1003.07,50.3,6.7
"2017-02-08 21:25:21+00",4.7,4.7,,49.7,45,-184,-3,1003.05,50.2,2.3
"2017-02-08 21:30:21+00",4.5,5.5,,49.7,26,-179,-5,1003.13,50,7.1
"2017-02-08 21:35:21+00",3.7,4.7,,49.8,26,-144,-1,1003.35,50,2.2
"2017-02-08 21:40:21+00",1.8,2.8,,50,-19,-63,5,1003.37,50.1,0
"2017-02-08 21:45:21+00",1.8,2.8,,50.4,-30,-63,2,1003.34,50.3,0
"2017-02-08 21:50:21+00",1.5,1.5,,50.7,-37,-44,2,1003.28,50.5,0
"2017-02-08 21:55:21+00",1.1,1.1,,51,35,-23,3,1003.17,50.7,0
"2017-02-08 22:00:21+00",2.0,2.0,,51.1,68,-39,3,1003.08,50.8,0
"2017-02-08 22:05:21+00",1.7,1.7,,51,62,-11,1,1003.22,50.9,0
"2017-02-08 22:10:21+00",2.3,2.3,,50.8,92,-2,2,1003.15,50.9,0
"2017-02-08 22:15:21+00",2.1,2.1,,50.7,81,-21,5,1003.17,50.8,0
"2017-02-08 22:20:21+00",2.5,2.5,,50.6,99,-4,7,1003.16,50.5,0
"2017-02-08 22:25:21+00",2.2,3.2,,50.7,83,6,2,1003.38,50.2,0
"2017-02-08 22:30:21+00",1.4,2.4,,50.8,31,35,2,1003.37,50,0
"2017-02-08 22:35:21+00",2.4,2.4,,50.9,21,86,7,1003.48,49.8,0
"2017-02-08 22:40:21+00",2.5,2.5,,51,63,66,-1,1003.56,49.5,0
"2017-02-08 22:45:21+00",3.6,4.6,,50.6,-17,141,-6,1003.5,49,0
"2017-02-08 22:50:21+00",1.5,1.5,,51.1,38,30,4,1003.51,48.6,0
"2017-02-08 22:55:21+00",2.7,2.7,,51.6,91,53,1,1003.61,48.1,0
"2017-02-08 23:00:21+00",2.6,2.6,,51.9,88,49,-1,1003.58,47.7,0
"2017-02-08 23:05:21+00",2.2,2.2,,52.1,50,57,1,1003.71,47.2,0
"2017-02-08 23:10:21+00",2.0,2.0,,52.5,75,-9,1,1003.8,46.9,0
"2017-02-08 23:15:21+00",2.6,2.6,,52.3,78,59,4,1003.75,46.9,0
"2017-02-08 23:20:21+00",3.8,3.8,,52.1,9,151,-2,1003.84,46.9,0
"2017-02-08 23:25:21+00",4.6,5.6,,53.5,143,-128,0,1003.95,48,0
"2017-02-08 23:30:21+00",2.2,3.2,,52.9,75,21,-8,1004.11,47.9,0
"2017-02-08 23:35:21+00",4.8,5.8,,52.6,-12,197,4,1004.27,48,0
"2017-02-08 23:40:21+00",6.7,8.7,,52.2,126,247,4,1004.41,47.6,0
"2017-02-08 23:45:21+00",7.9,9.9,,51.8,-26,332,16,1004.5,47.7,0
"2017-02-08 23:50:21+00",6.4,10.4,,53.1,115,231,7,1004.61,48.5,0
"2017-02-08 23:55:21+00",4.9,5.9,,54.6,13,183,24,1004.63,49.7,0
